Temp
76 78 80 80 79 79 80 80 79 79 79 79 79 79 79 79 79 79 79 79 79 80 80 80 80 80 80 80 79 79 79 79 80 80 79 79 79 79 79 79 79 78 78
78 78 80 79 79 79 79 79 79 78 79 79 79 79 79 79 79 79 79 79 79 80 80 80 80 80 80 80 80 79 79 79 79 80 80 79 79 79 79 79 78 78 78
77 80 79 79 79 79 79 78 78 78 78 78 79 79 79 79 79 79 79 79 80 80 80 80 80 80 80 80 80 79 79 79 79 79 79 79 78 79 79 79 79 78 77
79 79 77 79 79 79 78 78 78 78 78 78 78 79 79 79 79 79 79 79 80 80 80 80 80 80 80 80 79 79 79 79 79 80 79 79 79 80 80 79 79 79 78
79 77 77 79 79 79 78 78 78 78 78 78 79 79 79 78 78 78 78 79 80 80 80 80 80 79 79 79 79 79 79 79 79 79 78 78 77 80 80 80 79 79 78
77 78 78 78 78 78 79 78 78 78 78 78 79 79 79 78 78 78 78 79 80 80 80 79 79 79 79 79 78 78 78 79 79 78 77 77 78 78 80 80 80 79 78
77 78 78 78 78 79 79 78 78 78 78 78 78 79 78 78 78 78 78 79 79 80 79 79 78 78 78 78 78 78 78 79 79 77 77 76 77 76 79 80 79 79 78
77 79 77 78 78 78 78 78 78 77 77 78 78 78 78 77 77 77 78 78 79 79 79 78 78 77 77 77 77 77 77 78 79 75 75 76 75 77 79 79 79 79 78
78 79 77 76 77 78 78 78 77 77 77 77 77 77 77 77 77 77 77 77 78 77 77 77 77 77 77 77 77 77 77 78 78 74 75 76 75 77 79 79 79 79 78
77 79 76 75 75 74 75 78 77 77 77 77 77 77 77 77 77 77 76 77 77 77 77 77 77 77 76 76 76 76 77 78 75 74 75 75 76 78 80 80 79 79 78
76 76 76 75 74 73 73 76 77 78 77 77 77 77 75 73 74 76 76 76 77 77 77 77 77 77 76 76 76 76 77 74 73 74 76 75 77 79 80 79 79 79 78
74 75 75 74 73 75 76 73 73 75 73 73 73 73 72 71 72 75 75 77 77 77 77 77 77 77 77 73 73 74 72 72 73 74 76 77 77 79 80 80 79 79 78
76 77 77 74 75 74 73 72 72 72 72 72 72 71 71 71 71 72 71 72 72 74 74 74 73 73 72 72 72 72 73 73 74 75 77 77 77 79 80 80 80 79 78
73 77 78 78 77 73 72 71 72 72 71 70 71 71 69 69 69 69 70 71 71 72 71 72 72 71 71 71 72 73 74 74 75 75 76 77 77 77 78 78 77 76 74
72 74 76 76 74 73 71 71 72 70 70 70 70 70 70 68 68 68 69 71 71 71 71 71 71 71 71 72 73 73 74 75 75 76 76 76 75 75 76 76 76 75 74
72 73 75 74 73 72 71 70 69 70 70 70 69 70 70 68 68 68 68 70 71 72 72 71 71 71 72 72 72 73 74 74 75 75 76 74 74 74 75 75 75 76 76
69 70 71 71 69 70 69 69 69 69 70 69 69 70 71 70 68 68 68 69 71 72 72 72 72 72 70 72 71 73 74 74 75 75 75 74 73 73 73 75 76 75 75
68 68 69 74 69 68 68 67 68 68 69 70 70 71 72 72 71 70 70 71 73 72 72 72 72 71 70 70 70 72 72 72 74 74 73 73 71 71 71 74 75 77 76
69 69 69 70 69 70 70 70 70 70 70 71 72 72 72 73 74 72 72 73 74 73 73 72 72 70 69 70 70 72 72 70 72 74 72 72 72 71 70 71 73 74 74
70 70 69 68 67 68 69 71 71 71 72 73 73 73 74 73 75 73 73 73 73 72 72 71 70 70 68 67 70 71 68 68 70 70 70 71 71 71 71 71 72 73 73
68 68 67 66 66 67 67 68 70 70 71 72 71 72 73 73 73 72 73 72 71 69 69 69 69 67 67 67 65 69 68 69 69 69 70 71 70 71 72 71 70 69 70
68 68 68 66 65 67 68 68 70 71 71 71 71 71 71 71 71 71 70 68 68 68 68 68 67 66 66 66 64 63 61 65 67 69 70 70 67 68 68 69 67 67 68
68 67 64 65 66 68 68 67 68 70 70 69 69 68 68 70 69 69 68 68 67 67 65 64 65 66 64 66 66 63 61 60 62 67 68 65 62 65 64 63 64 66 66
64 64 64 65 64 65 66 66 67 67 64 68 66 66 65 67 67 66 65 64 64 63 61 61 62 61 64 59 63 62 65 61 56 55 63 64 61 61 61 62 61 63 63
64 63 64 63 64 65 67 68 69 68 67 66 65 62 61 61 63 64 62 60 59 59 58 56 56 56 56 57 56 55 57 57 56 52 51 54 58 59 60 60 60 60 60
63 62 63 64 65 68 68 68 68 67 64 62 60 58 57 56 57 59 59 57 56 55 55 54 54 54 54 54 54 52 52 51 51 50 49 49 49 54 58 60 60 60 59
MSLP
1008.72 1008.91 1009.39 1009.87 1010.09 1009.75 1010.08 1010.40 1010.76 1011.19 1011.40 1011.75 1011.78 1012.23 1012.47 1012.72 1012.93 1013.14 1013.33 1013.60 1013.89 1013.98 1014.12 1014.34 1014.39 1014.45 1014.54 1014.67 1014.80 1014.78 1014.73 1014.75 1014.70 1014.57 1014.55 1014.74 1014.76 1014.73 1014.70 1014.71 1014.82 1014.93 1014.86
1007.85 1008.73 1009.47 1009.95 1009.99 1009.89 1010.25 1010.75 1011.01 1011.34 1011.59 1011.87 1012.17 1012.56 1012.78 1012.98 1013.15 1013.42 1013.64 1013.83 1013.94 1014.11 1014.20 1014.38 1014.59 1014.73 1014.86 1014.92 1014.98 1015.04 1015.02 1015.00 1014.86 1014.81 1014.75 1014.76 1014.83 1014.86 1014.88 1014.74 1014.87 1014.97 1014.81
1007.47 1008.44 1009.58 1009.89 1010.02 1010.19 1010.48 1010.94 1011.28 1011.57 1011.84 1012.26 1012.56 1012.88 1013.10 1013.31 1013.45 1013.64 1013.85 1014.07 1014.23 1014.36 1014.49 1014.62 1014.76 1014.90 1015.07 1015.19 1015.23 1015.23 1015.21 1015.15 1015.04 1014.93 1014.84 1014.86 1014.83 1014.75 1014.79 1014.80 1014.80 1014.91 1014.93
1007.39 1008.21 1009.38 1009.89 1010.06 1010.37 1010.74 1011.07 1011.50 1011.76 1012.02 1012.43 1012.88 1013.01 1013.21 1013.53 1013.75 1013.95 1014.26 1014.31 1014.39 1014.63 1014.76 1014.86 1014.99 1015.13 1015.19 1015.26 1015.38 1015.49 1015.43 1015.32 1015.20 1015.03 1014.92 1014.82 1014.81 1014.70 1014.66 1014.74 1014.80 1014.81 1014.76
1007.64 1008.35 1009.16 1009.85 1010.12 1010.51 1010.86 1011.30 1011.67 1011.98 1012.31 1012.69 1013.07 1013.25 1013.40 1013.73 1014.11 1014.23 1014.32 1014.48 1014.61 1014.67 1014.91 1015.09 1015.30 1015.45 1015.52 1015.51 1015.56 1015.60 1015.51 1015.42 1015.30 1015.14 1015.00 1014.76 1014.65 1014.52 1014.53 1014.54 1014.55 1014.53 1014.60
1008.04 1008.54 1009.18 1009.89 1010.41 1010.68 1010.99 1011.51 1012.02 1012.34 1012.63 1013.00 1013.34 1013.51 1013.72 1013.95 1014.16 1014.32 1014.47 1014.61 1014.79 1014.92 1015.01 1015.23 1015.39 1015.57 1015.63 1015.64 1015.62 1015.60 1015.53 1015.44 1015.34 1015.23 1015.04 1014.81 1014.52 1014.29 1014.23 1014.22 1014.25 1014.45 1014.52
1007.91 1008.80 1009.34 1010.08 1010.68 1011.07 1011.23 1011.70 1012.23 1012.57 1012.87 1013.20 1013.60 1013.90 1014.20 1014.37 1014.59 1014.75 1014.87 1014.90 1014.96 1015.08 1015.17 1015.29 1015.44 1015.53 1015.56 1015.55 1015.53 1015.48 1015.47 1015.36 1015.17 1015.17 1015.11 1014.98 1014.70 1014.29 1014.18 1014.01 1013.95 1014.02 1014.13
1007.32 1008.79 1009.65 1010.24 1010.86 1011.36 1011.50 1011.79 1012.28 1012.71 1013.06 1013.35 1013.78 1014.18 1014.54 1014.79 1015.06 1015.25 1015.32 1015.40 1015.45 1015.46 1015.51 1015.56 1015.51 1015.46 1015.48 1015.51 1015.51 1015.46 1015.36 1015.27 1015.15 1015.14 1015.12 1014.94 1014.63 1014.28 1013.95 1013.83 1013.83 1013.85 1013.98
1007.90 1008.99 1009.77 1010.52 1011.00 1011.50 1011.77 1011.95 1012.44 1012.93 1013.41 1013.75 1014.09 1014.39 1014.74 1015.01 1015.26 1015.36 1015.43 1015.59 1015.70 1015.72 1015.72 1015.67 1015.63 1015.50 1015.39 1015.40 1015.30 1015.27 1015.20 1015.07 1014.96 1014.89 1014.68 1014.41 1014.13 1014.05 1013.79 1013.44 1013.36 1013.41 1013.56
1008.41 1009.39 1010.17 1010.76 1011.32 1011.66 1012.07 1012.23 1012.59 1013.09 1013.52 1013.98 1014.34 1014.60 1014.87 1015.07 1015.26 1015.41 1015.50 1015.61 1015.70 1015.66 1015.62 1015.52 1015.36 1015.21 1015.07 1015.04 1015.00 1014.84 1014.78 1014.64 1014.55 1014.35 1014.17 1013.94 1013.73 1013.55 1013.31 1013.23 1012.97 1012.88 1012.92
1009.08 1009.78 1010.52 1011.22 1011.60 1012.00 1012.33 1012.43 1012.75 1013.21 1013.59 1014.00 1014.31 1014.53 1014.90 1015.14 1015.26 1015.35 1015.47 1015.48 1015.50 1015.45 1015.31 1015.18 1015.10 1015.04 1014.92 1014.72 1014.55 1014.47 1014.41 1014.49 1014.37 1013.87 1013.62 1013.35 1013.20 1013.00 1012.86 1012.70 1012.63 1012.57 1012.40
1009.15 1010.13 1010.93 1011.61 1011.80 1012.33 1012.56 1012.69 1012.96 1013.30 1013.59 1014.02 1014.23 1014.49 1014.80 1015.02 1015.19 1015.41 1015.41 1015.32 1015.35 1015.32 1015.24 1015.16 1015.00 1014.80 1014.66 1014.61 1014.40 1014.37 1014.33 1014.09 1013.95 1013.66 1013.16 1012.84 1012.81 1012.72 1012.51 1012.35 1012.17 1012.18 1012.19
1008.98 1010.04 1010.94 1011.76 1012.02 1012.46 1012.79 1012.99 1013.20 1013.41 1013.67 1014.14 1014.33 1014.56 1014.79 1014.99 1015.10 1015.34 1015.47 1015.30 1015.22 1015.13 1015.01 1014.94 1014.90 1014.80 1014.71 1014.67 1014.42 1014.24 1013.95 1013.61 1013.41 1013.20 1012.82 1012.54 1012.59 1012.52 1012.31 1012.02 1011.78 1011.68 1011.77
1009.36 1009.91 1010.87 1011.59 1012.06 1012.50 1013.01 1013.40 1013.53 1013.65 1013.94 1014.39 1014.48 1014.74 1014.98 1015.28 1015.43 1015.45 1015.40 1015.32 1015.23 1014.99 1014.98 1014.97 1014.78 1014.70 1014.74 1014.58 1014.41 1014.12 1013.77 1013.40 1013.08 1012.79 1012.58 1012.49 1012.37 1012.34 1012.13 1011.90 1011.85 1011.72 1012.08
1009.58 1010.12 1010.76 1011.40 1012.11 1012.46 1013.03 1013.47 1013.86 1013.83 1013.98 1014.32 1014.48 1014.73 1015.04 1015.35 1015.59 1015.61 1015.51 1015.22 1015.05 1015.06 1014.97 1014.93 1014.89 1014.57 1014.38 1014.10 1013.86 1013.83 1013.48 1013.06 1012.80 1012.52 1012.31 1012.25 1012.20 1011.89 1011.50 1011.23 1011.07 1011.14 1011.47
1009.82 1010.14 1010.59 1011.18 1011.54 1011.88 1012.50 1013.15 1013.47 1013.58 1013.82 1014.20 1014.56 1014.82 1014.89 1015.04 1015.24 1015.34 1015.18 1015.01 1014.85 1014.85 1014.70 1014.72 1014.48 1014.53 1014.28 1014.02 1013.67 1013.29 1013.00 1012.80 1012.50 1012.44 1012.04 1011.77 1011.81 1011.66 1011.23 1010.96 1010.61 1010.15 1009.64
1009.46 1010.15 1010.81 1011.30 1011.78 1012.04 1012.62 1012.94 1013.02 1013.34 1013.64 1013.94 1014.25 1014.43 1014.67 1015.12 1015.37 1015.43 1015.23 1014.88 1014.65 1014.58 1014.58 1014.43 1014.17 1014.28 1014.30 1013.92 1013.51 1013.12 1012.73 1012.39 1012.27 1011.94 1011.70 1011.58 1011.90 1011.74 1011.15 1010.64 1010.79 1010.13 1009.52
1009.61 1010.26 1010.90 1011.27 1011.93 1012.28 1012.60 1013.04 1013.03 1013.16 1013.29 1013.74 1014.20 1014.42 1014.30 1014.30 1014.55 1014.92 1014.95 1014.55 1014.24 1014.19 1014.13 1014.36 1014.42 1014.36 1014.32 1014.02 1013.53 1013.05 1012.68 1012.53 1012.29 1011.96 1011.74 1011.92 1011.92 1011.45 1011.06 1010.59 1010.06 1010.01 1009.96
1009.42 1010.03 1010.70 1011.08 1011.74 1011.97 1012.20 1012.38 1012.71 1012.72 1013.08 1013.28 1013.24 1013.35 1013.43 1013.67 1014.02 1014.35 1014.27 1014.16 1014.28 1014.38 1014.46 1014.34 1014.39 1014.45 1014.34 1014.16 1013.67 1013.05 1012.64 1012.38 1012.00 1011.76 1012.00 1011.97 1011.59 1011.54 1011.22 1010.78 1010.34 1009.95 1009.92
1009.07 1009.57 1010.38 1010.85 1011.45 1011.70 1011.66 1011.93 1011.88 1011.98 1012.29 1012.53 1012.70 1012.70 1012.66 1013.07 1013.61 1014.07 1013.93 1013.97 1014.32 1014.71 1014.62 1014.36 1014.27 1014.24 1014.36 1014.28 1013.69 1012.84 1012.50 1012.02 1011.81 1012.05 1011.94 1011.76 1011.57 1011.54 1011.30 1010.98 1010.59 1010.34 1010.00
1009.35 1009.95 1010.47 1010.86 1011.20 1011.49 1011.78 1011.76 1011.86 1012.22 1011.78 1011.95 1012.66 1013.23 1012.93 1013.10 1013.45 1014.02 1013.98 1014.18 1014.42 1014.81 1014.84 1014.57 1014.25 1014.33 1014.42 1014.46 1013.92 1012.78 1012.03 1011.69 1011.72 1011.98 1011.92 1011.79 1011.76 1011.48 1011.23 1011.02 1010.95 1010.70 1009.99
1009.25 1009.80 1010.43 1010.85 1011.11 1011.37 1011.55 1012.10 1012.55 1012.28 1012.23 1011.46 1012.75 1013.98 1013.92 1013.86 1013.68 1013.97 1014.22 1014.36 1014.44 1014.30 1014.38 1014.87 1014.47 1014.77 1014.90 1014.96 1014.88 1014.21 1012.99 1012.02 1012.05 1012.05 1012.08 1012.08 1012.12 1012.05 1012.02 1011.56 1011.27 1010.71 1010.23
1009.50 1009.96 1010.50 1010.99 1011.11 1011.23 1011.69 1012.24 1012.90 1012.90 1012.99 1012.79 1012.95 1014.97 1012.19 1014.39 1014.23 1014.37 1014.72 1015.02 1015.06 1014.82 1014.86 1014.95 1014.79 1014.99 1015.39 1015.19 1015.08 1015.14 1014.37 1013.79 1013.24 1012.07 1011.88 1012.42 1012.61 1012.55 1012.29 1011.86 1011.50 1011.01 1010.80
1009.82 1010.19 1010.65 1011.05 1011.41 1011.89 1012.25 1012.60 1012.89 1013.39 1014.08 1014.12 1014.06 1016.29 1017.33 1015.74 1015.90 1015.38 1015.56 1016.11 1016.20 1015.86 1015.19 1015.25 1015.46 1015.67 1015.49 1015.96 1015.39 1015.31 1015.18 1015.20 1014.78 1013.50 1012.84 1012.80 1012.84 1012.92 1012.63 1012.13 1011.90 1011.56 1011.27
1009.69 1010.39 1010.89 1011.56 1011.92 1012.21 1012.59 1012.91 1012.69 1013.44 1015.04 1014.94 1016.13 1016.96 1017.19 1016.75 1015.76 1015.89 1016.01 1016.18 1016.68 1016.73 1016.66 1016.27 1016.19 1016.39 1016.55 1016.65 1016.51 1016.30 1015.97 1015.77 1015.93 1015.91 1014.30 1013.91 1014.00 1013.53 1012.87 1012.44 1012.10 1011.72 1011.59
1009.94 1010.73 1011.51 1011.99 1012.40 1012.44 1012.60 1013.07 1013.07 1013.85 1015.17 1015.65 1017.36 1017.87 1018.27 1017.55 1017.01 1016.82 1016.79 1017.11 1017.43 1017.53 1017.32 1017.09 1016.89 1017.04 1017.34 1017.38 1017.38 1017.30 1017.29 1017.32 1017.10 1016.97 1016.29 1015.35 1014.78 1013.87 1013.12 1012.66 1012.28 1011.89 1011.57
Wind_Speed
9 11 16 16 17 19 17 17 18 18 18 17 19 18 17 16 16 16 15 13 11 11 12 11 12 12 11 10 10 10 9 8 9 9 8 6 5 3 5 8 8 7 8
15 11 17 15 17 20 19 17 17 16 17 17 18 17 16 15 15 14 14 13 12 12 12 12 11 11 10 10 10 9 8 7 6 6 5 3 2 3 5 6 6 6 8
17 15 11 15 16 19 19 18 17 17 17 16 16 15 15 14 14 14 13 12 12 11 11 11 11 11 10 8 8 7 5 4 3 3 2 0 2 3 5 5 6 7 7
17 15 10 15 16 18 19 18 17 17 17 16 14 15 14 13 13 13 11 11 12 10 10 9 9 9 8 7 6 4 3 3 3 3 2 4 5 7 7 7 8 8 8
17 13 12 15 16 17 18 17 17 16 15 15 14 14 13 13 11 11 11 10 10 10 8 7 7 6 5 5 3 3 4 5 6 6 4 4 5 8 11 10 10 11 10
14 12 15 15 14 16 18 17 16 15 14 13 13 12 11 12 11 10 9 8 8 8 6 5 4 3 3 2 2 4 5 6 8 5 5 6 6 9 12 12 12 12 11
14 11 12 14 14 15 17 17 15 14 13 12 11 10 9 9 8 7 7 6 6 5 4 3 1 1 2 3 4 5 6 7 5 5 6 6 6 7 11 13 13 12 12
17 13 10 14 13 13 16 16 15 14 12 11 10 9 8 7 7 6 5 4 3 2 1 1 2 4 6 6 7 8 8 10 6 5 6 6 9 10 9 13 14 13 13
14 12 10 8 11 13 13 15 14 12 10 9 9 8 7 7 6 5 4 3 2 0 1 3 4 6 7 8 8 9 10 12 7 5 6 5 10 12 12 12 15 14 14
12 11 9 6 6 6 6 12 13 12 11 9 8 8 7 6 5 4 3 1 2 3 4 5 7 7 7 8 9 9 11 12 7 6 5 5 12 13 13 13 14 16 15
8 8 8 7 5 4 4 7 10 13 12 10 8 8 6 3 3 3 3 4 5 6 6 8 8 8 9 9 9 10 11 4 6 5 5 10 12 13 13 12 15 16 16
11 10 7 6 6 6 3 4 5 6 5 4 5 5 4 4 3 3 3 5 6 7 8 8 9 9 9 4 4 8 4 5 5 6 5 12 12 14 13 13 13 14 16
14 9 11 6 6 6 4 3 2 2 3 3 4 4 4 3 2 1 2 2 2 5 3 4 5 4 5 4 5 5 6 6 4 5 8 13 13 15 16 15 13 10 14
13 13 12 12 9 5 3 2 3 3 2 2 3 4 3 1 2 2 2 3 3 3 4 4 3 4 6 6 6 7 7 6 4 4 6 10 9 10 11 12 16 18 22
14 14 14 11 8 6 5 3 3 2 3 3 3 4 3 3 3 3 4 3 3 2 3 4 4 5 6 6 6 6 8 8 7 4 3 8 5 3 5 8 8 8 9
13 14 14 14 11 11 7 7 4 3 3 3 2 3 4 3 3 4 4 4 4 3 3 3 4 5 6 4 7 6 7 7 6 5 4 3 2 1 2 1 7 5 7
11 12 14 10 6 8 6 5 4 4 4 3 3 5 4 3 4 5 4 4 4 3 4 3 4 3 4 5 6 6 5 6 4 6 4 3 3 8 7 6 3 1 1
10 11 9 8 7 5 3 1 2 3 4 3 2 3 6 7 7 5 4 5 4 3 1 2 3 4 3 4 4 5 5 5 6 6 5 4 4 5 8 14 14 8 10
13 13 10 8 8 7 6 5 5 5 4 3 4 5 7 7 7 7 6 3 2 2 2 2 2 1 3 4 5 5 5 4 5 5 5 7 7 6 6 11 15 16 18
13 12 10 9 9 7 5 5 4 4 5 4 4 6 6 5 7 6 3 1 1 2 2 2 1 1 2 4 7 8 6 5 4 2 4 5 5 7 6 8 7 8 15
9 12 11 12 9 6 2 2 2 3 3 3 3 6 4 2 3 5 1 3 3 4 3 3 1 2 2 4 4 6 2 5 3 3 4 5 8 8 9 8 6 7 8
13 12 11 7 7 4 3 3 2 2 2 5 6 9 7 7 3 3 3 4 2 3 4 4 4 2 1 3 3 2 5 4 2 2 3 6 10 8 10 9 11 10 9
12 7 7 7 7 5 6 4 2 3 3 3 9 9 12 9 8 6 6 5 6 5 6 5 5 6 2 2 2 1 4 3 8 3 6 6 9 9 9 9 10 11 11
6 8 8 7 6 7 7 5 5 3 5 6 12 5 4 8 6 9 9 8 7 5 7 6 5 4 3 3 2 5 2 3 3 6 3 6 12 11 10 9 8 9 10
7 7 6 7 7 6 6 4 2 10 10 11 6 6 1 2 7 9 8 8 7 6 6 7 6 7 5 3 3 3 2 3 4 3 6 8 7 9 7 7 7 7 9
6 7 7 8 6 5 6 3 4 14 12 10 7 4 3 2 5 8 8 8 7 6 6 5 6 7 5 5 5 5 4 3 4 3 4 9 9 5 9 9 7 9 9
Wind_Direction
157 145 145 146 144 124 121 118 117 119 119 121 117 123 127 132 134 132 133 131 126 126 119 114 112 110 109 112 110 109 113 119 125 126 123 116 114 159 168 161 156 157 153
137 138 146 146 138 128 127 126 122 120 117 119 122 127 129 134 134 134 134 134 136 132 127 123 119 115 116 114 111 111 114 116 116 110 112 115 110 36 158 172 179 182 170
136 141 145 145 137 132 131 130 128 124 121 124 129 131 131 133 135 135 134 135 136 133 129 128 124 121 117 113 109 107 106 102 97 105 117 181 239 213 219 217 208 203 189
137 141 142 149 140 137 134 132 131 129 128 131 136 136 136 135 135 131 131 136 136 135 133 130 126 121 120 115 100 85 69 40 357 326 309 278 263 247 233 229 232 227 213
142 137 147 151 146 142 137 135 135 133 133 135 137 137 138 132 126 127 134 139 141 138 135 131 121 116 107 94 73 42 11 346 333 332 317 294 272 259 235 229 233 235 232
140 136 149 150 150 147 141 139 137 133 133 136 137 136 132 130 132 133 137 140 142 138 134 125 109 93 77 46 8 348 336 328 322 314 307 304 306 248 238 226 231 238 238
137 140 143 149 153 152 144 141 139 138 139 138 135 132 127 125 124 123 131 135 142 143 139 107 56 9 339 323 325 323 317 316 311 305 307 311 309 298 257 235 230 234 239
134 145 143 153 155 156 149 147 147 146 145 140 135 125 119 114 115 118 118 121 134 143 161 314 311 309 313 316 317 317 314 316 316 304 307 305 299 293 283 251 242 235 243
128 141 143 151 163 161 157 152 149 147 141 130 123 118 118 120 117 128 141 152 165 155 305 305 300 296 298 307 311 313 314 319 318 302 298 281 280 287 287 257 242 235 238
129 141 146 139 147 140 157 154 148 146 139 128 123 127 129 129 141 155 157 174 231 251 266 272 274 278 284 291 296 298 305 312 307 299 284 280 284 288 289 278 250 240 233
124 132 142 146 139 116 134 157 145 150 142 141 149 142 139 137 147 169 184 213 234 241 245 252 263 276 283 284 289 294 301 299 299 288 286 284 284 288 290 280 268 252 240
142 149 146 155 138 154 144 127 132 153 139 150 153 157 151 158 172 195 222 238 249 260 267 274 276 278 284 280 284 296 291 284 278 280 283 284 285 297 302 293 271 259 250
147 156 156 148 157 164 125 116 129 132 137 156 160 159 165 168 180 210 258 270 265 269 266 277 286 283 284 285 289 283 278 277 270 276 283 290 301 312 321 320 315 266 257
153 158 168 173 175 149 134 141 156 154 137 158 163 178 163 191 215 234 241 247 251 248 268 273 279 289 288 284 278 289 284 281 283 277 286 309 318 355 3 15 31 36 42
159 165 170 162 160 157 136 139 195 168 160 169 169 196 182 195 217 235 259 257 259 267 252 268 280 279 283 280 276 266 285 281 285 283 291 327 24 73 81 80 63 49 16
163 171 176 179 168 166 164 172 188 179 175 182 202 225 211 206 217 229 249 254 264 256 256 259 264 285 291 291 293 275 271 278 284 307 276 239 208 207 169 311 126 123 108
162 160 176 168 157 166 180 185 180 183 182 197 213 218 227 221 231 244 253 261 264 277 276 266 289 292 291 291 273 287 283 281 289 274 250 246 290 290 304 294 312 318 67
131 149 153 162 145 125 130 211 190 183 172 196 195 221 223 215 210 232 246 246 256 262 242 286 299 309 297 299 298 296 297 307 297 266 261 302 290 278 303 318 312 323 292
143 137 136 139 152 154 162 163 182 185 209 196 192 208 225 222 220 221 232 250 265 284 302 316 315 276 300 309 304 288 279 270 267 267 300 295 277 283 295 306 318 316 310
158 151 133 130 139 143 134 153 180 177 178 189 226 231 223 219 226 229 221 221 332 328 2 356 316 311 297 312 309 300 288 279 276 322 307 294 300 308 314 322 322 326 325
150 145 155 149 160 152 167 133 114 164 175 132 24 336 329 317 252 251 130 101 65 54 32 2 323 3 345 328 309 316 264 300 346 360 321 344 8 8 20 4 352 340 333
165 162 168 136 133 154 116 74 15 214 263 100 72 32 15 21 5 38 51 77 120 126 61 358 33 354 9 355 325 298 330 341 6 301 5 42 26 11 6 2 349 342 351
173 143 123 122 142 150 114 82 13 320 314 26 77 44 352 19 31 49 55 65 61 66 70 46 33 42 5 305 15 313 323 320 333 338 1 56 23 355 349 350 348 355 5
115 106 118 128 94 63 68 75 65 34 6 50 65 61 336 22 34 60 58 52 51 53 61 49 32 30 30 17 322 5 345 9 334 318 3 353 2 336 329 343 347 358 7
123 123 114 93 85 101 117 74 86 75 33 73 85 131 26 40 51 64 66 68 63 52 51 53 50 45 43 68 34 337 349 340 51 316 315 337 324 324 325 337 343 356 353
125 122 124 121 96 100 80 170 131 118 131 124 125 137 194 74 52 50 64 63 57 56 50 47 55 52 42 48 53 47 42 16 356 350 310 330 320 313 321 334 348 352 345